,,,PA_Meas_PMT16A,,PR_Meas_QMR101_102,,RH_Meas_QMH101,,SR_Meas_QMS101,,TA_Meas_QMH101,,GenWind,,GenWind,
date,time,status,PA,status,PR,status,RH,status,SR,status,TA,status,DirAvg,status,SpdAvg,
2011-10-15, 00:00:05,VALID,1006.74,VALID,0,VALID,93.0342,VALID,0,VALID,23.8185,VALID,347,VALID,0.561719,
2011-10-15, 00:01:05,VALID,1006.72,VALID,0,VALID,92.9426,VALID,0,VALID,23.8185,VALID,347,VALID,0.394141,
2011-10-15, 00:02:05,VALID,1006.72,VALID,0,VALID,92.9503,VALID,0,VALID,23.8203,VALID,347,VALID,0.374219,
2011-10-15, 00:03:05,VALID,1006.73,VALID,0,VALID,93.0189,VALID,0,VALID,23.8185,VALID,347,VALID,0.462109,
2011-10-15, 00:04:05,VALID,1006.71,VALID,0,VALID,93.1257,VALID,0,VALID,23.7991,VALID,348,VALID,0.362109,
2011-10-15, 00:05:05,VALID,1006.76,VALID,0,VALID,93.0952,VALID,0,VALID,23.8185,VALID,348,VALID,0.446484,
2011-10-15, 00:06:05,VALID,1006.74,VALID,0,VALID,93.0418,VALID,0,VALID,23.7991,VALID,348,VALID,0.317969,
2011-10-15, 00:07:05,VALID,1006.75,VALID,0,VALID,92.9961,VALID,0,VALID,23.7814,VALID,348,VALID,0.242969,
2011-10-15, 00:08:05,VALID,1006.71,VALID,0,VALID,93.08,VALID,0,VALID,23.7194,VALID,348,VALID,0.247656,
2011-10-15, 00:09:05,VALID,1006.72,VALID,0,VALID,93.3088,VALID,0,VALID,23.7425,VALID,348,VALID,0.246484,
2011-10-15, 00:10:05,VALID,1006.71,VALID,0,VALID,93.3394,VALID,0,VALID,23.6823,VALID,348,VALID,0.489844,
2011-10-15, 00:11:05,VALID,1006.67,VALID,0,VALID,93.4538,VALID,0,VALID,23.6434,VALID,348,VALID,0.632031,
2011-10-15, 00:12:05,VALID,1006.62,VALID,0,VALID,93.6826,VALID,0.0815089,VALID,23.6239,VALID,348,VALID,0.680469,
2011-10-15, 00:13:05,VALID,1006.6,VALID,0,VALID,93.7208,VALID,0,VALID,23.585,VALID,344,VALID,0.675,
2011-10-15, 00:14:05,VALID,1006.57,VALID,0,VALID,93.7589,VALID,0,VALID,23.546,VALID,338,VALID,0.714063,
2011-10-15, 00:15:05,VALID,1006.53,VALID,0,VALID,93.9344,VALID,0,VALID,23.5071,VALID,340,VALID,0.844922,
2011-10-15, 00:16:05,VALID,1006.47,VALID,0,VALID,93.9802,VALID,0.0815089,VALID,23.4877,VALID,343,VALID,0.805078,
2011-10-15, 00:17:05,VALID,1006.45,VALID,0,VALID,94.1099,VALID,0,VALID,23.4682,VALID,353,VALID,0.829687,
2011-10-15, 00:18:05,VALID,1006.42,VALID,0,VALID,94.148,VALID,0,VALID,23.4275,VALID,353,VALID,0.448828,
2011-10-15, 00:19:05,VALID,1006.4,VALID,0,VALID,94.3006,VALID,0,VALID,23.4293,VALID,353,VALID,0.569141,
2011-10-15, 00:20:05,VALID,1006.36,VALID,0,VALID,94.3464,VALID,0,VALID,23.4098,VALID,353,VALID,0.457031,
2011-10-15, 00:21:05,VALID,1006.39,VALID,0,VALID,94.4837,VALID,0,VALID,23.3691,VALID,353,VALID,0.475391,
2011-10-15, 00:22:05,VALID,1006.36,VALID,0,VALID,94.5905,VALID,0,VALID,23.4116,VALID,353,VALID,0.348437,
2011-10-15, 00:23:05,VALID,1006.32,VALID,0,VALID,94.6439,VALID,0,VALID,23.4098,VALID,353,VALID,0.113672,
2011-10-15, 00:24:05,VALID,1006.31,VALID,0,VALID,94.621,VALID,0,VALID,23.4293,VALID,353,VALID,0.2125,
2011-10-15, 00:25:05,VALID,1006.28,VALID,0,VALID,94.4761,VALID,0,VALID,23.4859,VALID,344,VALID,0.733203,
2011-10-15, 00:26:04,VALID,1006.27,VALID,0,VALID,93.7437,VALID,0,VALID,23.6062,VALID,342,VALID,0.475781,
2011-10-15, 00:27:04,VALID,1006.26,VALID,0,VALID,93.2631,VALID,0.0815089,VALID,23.6628,VALID,292,VALID,0.105078,
2011-10-15, 00:28:04,VALID,1006.21,VALID,0,VALID,92.6299,VALID,0,VALID,23.7601,VALID,345,VALID,0.776563,
2011-10-15, 00:29:04,VALID,1006.22,VALID,0,VALID,92.2561,VALID,0,VALID,23.8787,VALID,344,VALID,0.0949219,
2011-10-15, 00:30:04,VALID,1006.2,VALID,0,VALID,91.9814,VALID,0,VALID,23.9159,VALID,296,VALID,0.1875,
2011-10-15, 00:31:04,VALID,1006.17,VALID,0,VALID,91.6991,VALID,0,VALID,23.9548,VALID,344,VALID,0.452344,
2011-10-15, 00:32:04,VALID,1006.18,VALID,0,VALID,91.5847,VALID,0,VALID,23.9742,VALID,268,VALID,0.142969,
2011-10-15, 00:33:04,VALID,1006.22,VALID,0,VALID,91.455,VALID,0.0815089,VALID,23.9724,VALID,268,VALID,0.130469,
2011-10-15, 00:34:04,VALID,1006.21,VALID,0,VALID,91.3177,VALID,0,VALID,24.0132,VALID,340,VALID,0.505469,
2011-10-15, 00:35:04,VALID,1006.21,VALID,0,VALID,91.2948,VALID,0,VALID,24.0114,VALID,340,VALID,0.388281,
2011-10-15, 00:36:04,VALID,1006.25,VALID,0,VALID,91.1804,VALID,0,VALID,24.0132,VALID,341,VALID,0.390625,
2011-10-15, 00:37:04,VALID,1006.25,VALID,0,VALID,91.1804,VALID,0,VALID,23.9548,VALID,356,VALID,0.452344,
2011-10-15, 00:38:04,VALID,1006.24,VALID,0,VALID,91.3482,VALID,0.0815089,VALID,23.8964,VALID,356,VALID,0.469141,
2011-10-15, 00:39:04,VALID,1006.24,VALID,0,VALID,91.6076,VALID,0,VALID,23.7991,VALID,16,VALID,0.670703,
2011-10-15, 00:40:04,VALID,1006.2,VALID,0,VALID,92.1187,VALID,0,VALID,23.7017,VALID,336,VALID,0.370313,
2011-10-15, 00:41:04,VALID,1006.2,VALID,0,VALID,92.462,VALID,0,VALID,23.6628,VALID,274,VALID,0.0195313,
2011-10-15, 00:42:04,VALID,1006.18,VALID,0,VALID,92.935,VALID,0,VALID,23.6434,VALID,347,VALID,0.667188,
2011-10-15, 00:43:04,VALID,1006.19,VALID,0,VALID,92.9808,VALID,0,VALID,23.6221,VALID,341,VALID,0.733203,
2011-10-15, 00:44:04,VALID,1006.17,VALID,0,VALID,93.141,VALID,0,VALID,23.6434,VALID,341,VALID,0.717578,
2011-10-15, 00:45:04,VALID,1006.15,VALID,0,VALID,93.1944,VALID,0,VALID,23.6239,VALID,344,VALID,0.427734,
2011-10-15, 00:46:04,VALID,1006.16,VALID,0,VALID,93.1944,VALID,0,VALID,23.6257,VALID,352,VALID,0.719141,
2011-10-15, 00:47:04,VALID,1006.1,VALID,0,VALID,93.2859,VALID,0,VALID,23.6044,VALID,4,VALID,0.746875,
2011-10-15, 00:48:04,VALID,1006.12,VALID,0,VALID,93.3165,VALID,0,VALID,23.585,VALID,8,VALID,0.674609,
2011-10-15, 00:49:04,VALID,1006.1,VALID,0,VALID,93.2554,VALID,0,VALID,23.5868,VALID,13,VALID,0.852344,
2011-10-15, 00:50:04,VALID,1006.14,VALID,0,VALID,93.3241,VALID,0,VALID,23.546,VALID,14,VALID,0.591016,
2011-10-15, 00:51:04,VALID,1006.13,VALID,0,VALID,93.4233,VALID,0,VALID,23.5071,VALID,14,VALID,0.303125,
2011-10-15, 00:52:04,VALID,1006.18,VALID,0,VALID,93.4843,VALID,0,VALID,23.4877,VALID,14,VALID,0.188672,
2011-10-15, 00:53:04,VALID,1006.18,VALID,0,VALID,93.4309,VALID,0,VALID,23.4877,VALID,14,VALID,0.492969,
2011-10-15, 00:54:04,VALID,1006.2,VALID,0,VALID,93.5072,VALID,0,VALID,23.4293,VALID,14,VALID,0.546875,
2011-10-15, 00:55:04,VALID,1006.21,VALID,0,VALID,93.7284,VALID,0,VALID,23.4293,VALID,14,VALID,0.571484,
2011-10-15, 00:56:04,VALID,1006.2,VALID,0,VALID,93.8886,VALID,0,VALID,23.4311,VALID,14,VALID,0.596875,
2011-10-15, 00:57:04,VALID,1006.22,VALID,0,VALID,93.9497,VALID,0,VALID,23.4311,VALID,14,VALID,0.435547,
2011-10-15, 00:58:04,VALID,1006.22,VALID,0,VALID,93.9573,VALID,0,VALID,23.4098,VALID,14,VALID,0.329297,
2011-10-15, 00:59:04,VALID,1006.25,VALID,0,VALID,93.8047,VALID,0,VALID,23.4098,VALID,14,VALID,0.448828,
2011-10-15, 01:00:04,VALID,1006.27,VALID,0,VALID,93.9191,VALID,0,VALID,23.3904,VALID,14,VALID,0.297656,
2011-10-15, 01:01:04,VALID,1006.25,VALID,0,VALID,94.0107,VALID,0,VALID,23.3691,VALID,14,VALID,0.29375,
2011-10-15, 01:02:04,VALID,1006.28,VALID,0,VALID,94.1404,VALID,0,VALID,23.3709,VALID,14,VALID,0.5875,
2011-10-15, 01:03:04,VALID,1006.3,VALID,0,VALID,94.1251,VALID,0,VALID,23.4116,VALID,14,VALID,0.607422,
2011-10-15, 01:04:04,VALID,1006.3,VALID,0,VALID,93.9649,VALID,0,VALID,23.4311,VALID,14,VALID,0.477734,
2011-10-15, 01:05:04,VALID,1006.32,VALID,0,VALID,93.8505,VALID,0,VALID,23.4311,VALID,14,VALID,0.515234,
2011-10-15, 01:06:04,VALID,1006.3,VALID,0,VALID,93.8352,VALID,0,VALID,23.4311,VALID,14,VALID,0.571484,
2011-10-15, 01:07:04,VALID,1006.26,VALID,0,VALID,93.9344,VALID,0,VALID,23.4116,VALID,14,VALID,0.399219,
2011-10-15, 01:08:04,VALID,1006.27,VALID,0,VALID,93.9878,VALID,0,VALID,23.3904,VALID,14,VALID,0.44375,
2011-10-15, 01:09:04,VALID,1006.26,VALID,0,VALID,93.8734,VALID,0,VALID,23.3514,VALID,14,VALID,0.580859,
2011-10-15, 01:10:04,VALID,1006.26,VALID,0,VALID,94.0641,VALID,0,VALID,23.332,VALID,11,VALID,0.665625,
2011-10-15, 01:11:04,VALID,1006.23,VALID,0,VALID,94.2472,VALID,0,VALID,23.3302,VALID,7,VALID,0.683594,
2011-10-15, 01:12:04,VALID,1006.18,VALID,0,VALID,94.293,VALID,0,VALID,23.3125,VALID,5,VALID,0.558984,
2011-10-15, 01:13:04,VALID,1006.16,VALID,0,VALID,94.354,VALID,0,VALID,23.3337,VALID,5,VALID,0.610937,
2011-10-15, 01:14:04,VALID,1006.18,VALID,0,VALID,94.4379,VALID,0,VALID,23.3143,VALID,2,VALID,0.496094,
2011-10-15, 01:15:04,VALID,1006.14,VALID,0,VALID,94.4837,VALID,0,VALID,23.2718,VALID,1,VALID,0.547266,
2011-10-15, 01:16:04,VALID,1006.11,VALID,0,VALID,94.4913,VALID,0,VALID,23.3143,VALID,1,VALID,0.448047,
2011-10-15, 01:17:04,VALID,1006.08,VALID,0,VALID,94.5981,VALID,0,VALID,23.2931,VALID,1,VALID,0.532812,
2011-10-15, 01:18:04,VALID,1006.06,VALID,0,VALID,94.6515,VALID,0,VALID,23.2948,VALID,357,VALID,0.649219,
2011-10-15, 01:19:04,VALID,1006.04,VALID,0,VALID,94.7736,VALID,0,VALID,23.2736,VALID,356,VALID,0.729688,
2011-10-15, 01:20:04,VALID,1006.02,VALID,0,VALID,94.766,VALID,0,VALID,23.2718,VALID,352,VALID,0.583203,
2011-10-15, 01:21:04,VALID,1006.03,VALID,0,VALID,94.8422,VALID,0,VALID,23.3125,VALID,351,VALID,0.489844,
2011-10-15, 01:22:04,VALID,1006.03,VALID,0,VALID,94.7202,VALID,0,VALID,23.3125,VALID,351,VALID,0.633984,
2011-10-15, 01:23:04,VALID,1006.04,VALID,0,VALID,94.7125,VALID,0,VALID,23.3125,VALID,352,VALID,0.648828,
2011-10-15, 01:24:04,VALID,1006.02,VALID,0,VALID,94.682,VALID,0,VALID,23.332,VALID,348,VALID,0.410547,
2011-10-15, 01:25:04,VALID,1006.02,VALID,0,VALID,94.682,VALID,0,VALID,23.332,VALID,348,VALID,0.578516,
2011-10-15, 01:26:04,VALID,1006.01,VALID,0,VALID,94.7431,VALID,0,VALID,23.3727,VALID,348,VALID,0.521875,
2011-10-15, 01:27:04,VALID,1006,VALID,0,VALID,94.8117,VALID,0,VALID,23.3709,VALID,337,VALID,0.558984,
2011-10-15, 01:28:04,VALID,1006.01,VALID,0,VALID,94.7812,VALID,0,VALID,23.3904,VALID,342,VALID,0.523047,
2011-10-15, 01:29:04,VALID,1006.01,VALID,0,VALID,94.8422,VALID,0,VALID,23.4098,VALID,342,VALID,0.358594,
2011-10-15, 01:30:04,VALID,1006,VALID,0,VALID,94.6439,VALID,0,VALID,23.4098,VALID,343,VALID,0.560156,
2011-10-15, 01:31:04,VALID,1006,VALID,0,VALID,94.5829,VALID,0,VALID,23.4311,VALID,343,VALID,0.396875,
2011-10-15, 01:32:04,VALID,1006,VALID,0,VALID,94.6057,VALID,0,VALID,23.4098,VALID,343,VALID,0.4375,
2011-10-15, 01:33:04,VALID,1006.03,VALID,0,VALID,94.6897,VALID,0,VALID,23.4098,VALID,343,VALID,0.425391,
2011-10-15, 01:34:04,VALID,1006.04,VALID,0,VALID,94.7965,VALID,0,VALID,23.3886,VALID,343,VALID,0.535547,
2011-10-15, 01:35:04,VALID,1006.02,VALID,0,VALID,94.8728,VALID,0,VALID,23.4293,VALID,343,VALID,0.469531,
2011-10-15, 01:36:04,VALID,1006.01,VALID,0,VALID,94.8651,VALID,0,VALID,23.4487,VALID,343,VALID,0.464844,
2011-10-15, 01:37:04,VALID,1006.02,VALID,0,VALID,94.9185,VALID,0,VALID,23.47,VALID,343,VALID,0.530078,
2011-10-15, 01:38:04,VALID,1006.01,VALID,0,VALID,94.9643,VALID,0,VALID,23.4894,VALID,343,VALID,0.439063,
2011-10-15, 01:39:04,VALID,1005.99,VALID,0,VALID,94.9796,VALID,0,VALID,23.5071,VALID,343,VALID,0.359766,
2011-10-15, 01:40:04,VALID,1006.01,VALID,0,VALID,94.888,VALID,0,VALID,23.546,VALID,343,VALID,0.185156,
2011-10-15, 01:41:04,VALID,1006,VALID,0,VALID,94.7049,VALID,0,VALID,23.5655,VALID,343,VALID,0.495313,
2011-10-15, 01:42:04,VALID,1005.99,VALID,0,VALID,94.5905,VALID,0,VALID,23.5655,VALID,350,VALID,0.580469,
2011-10-15, 01:43:04,VALID,1005.98,VALID,0,VALID,94.6591,VALID,0,VALID,23.5832,VALID,350,VALID,0.566797,
2011-10-15, 01:44:04,VALID,1005.98,VALID,0,VALID,94.7278,VALID,0,VALID,23.6434,VALID,350,VALID,0.43125,
2011-10-15, 01:45:04,VALID,1005.98,VALID,0,VALID,94.6744,VALID,0,VALID,23.6628,VALID,350,VALID,0.471094,
2011-10-15, 01:46:04,VALID,1005.97,VALID,0,VALID,94.5142,VALID,0,VALID,23.7017,VALID,350,VALID,0.344922,
2011-10-15, 01:47:04,VALID,1005.92,VALID,0,VALID,94.3921,VALID,0,VALID,23.7212,VALID,350,VALID,0.482422,
2011-10-15, 01:48:04,VALID,1005.93,VALID,0,VALID,94.2624,VALID,0,VALID,23.7601,VALID,350,VALID,0.580859,
2011-10-15, 01:49:04,VALID,1005.91,VALID,0,VALID,94.1556,VALID,0,VALID,23.7796,VALID,349,VALID,0.513672,
2011-10-15, 01:50:04,VALID,1005.88,VALID,0,VALID,93.9954,VALID,0,VALID,23.7991,VALID,349,VALID,0.572656,
2011-10-15, 01:51:04,VALID,1005.88,VALID,0,VALID,93.8734,VALID,0,VALID,23.838,VALID,349,VALID,0.301562,
2011-10-15, 01:52:04,VALID,1005.86,VALID,0,VALID,93.881,VALID,0,VALID,23.8769,VALID,349,VALID,0.476563,
2011-10-15, 01:53:04,VALID,1005.85,VALID,0,VALID,93.8047,VALID,0,VALID,23.8362,VALID,349,VALID,0.639844,
2011-10-15, 01:54:04,VALID,1005.87,VALID,0,VALID,93.7895,VALID,0,VALID,23.8769,VALID,349,VALID,0.544922,
2011-10-15, 01:55:04,VALID,1005.83,VALID,0,VALID,93.8047,VALID,0,VALID,23.8575,VALID,349,VALID,0.33125,
2011-10-15, 01:56:04,VALID,1005.82,VALID,0,VALID,93.7361,VALID,0,VALID,23.838,VALID,349,VALID,0.573438,
2011-10-15, 01:57:04,VALID,1005.84,VALID,0,VALID,93.8047,VALID,0,VALID,23.838,VALID,349,VALID,0.490234,
2011-10-15, 01:58:04,VALID,1005.81,VALID,0,VALID,93.9344,VALID,0,VALID,23.8575,VALID,349,VALID,0.671484,
2011-10-15, 01:59:04,VALID,1005.81,VALID,0,VALID,94.0412,VALID,0,VALID,23.8593,VALID,353,VALID,0.375,
2011-10-15, 02:00:04,VALID,1005.78,VALID,0,VALID,94.0488,VALID,0,VALID,23.8575,VALID,339,VALID,0.4875,
2011-10-15, 02:01:04,VALID,1005.79,VALID,0,VALID,93.942,VALID,0,VALID,23.8787,VALID,341,VALID,0.430469,
2011-10-15, 02:02:04,VALID,1005.79,VALID,0,VALID,93.9039,VALID,0,VALID,23.8575,VALID,341,VALID,0.0234375,
2011-10-15, 02:03:04,VALID,1005.78,VALID,0,VALID,93.9954,VALID,0,VALID,23.8769,VALID,341,VALID,0.274609,
2011-10-15, 02:04:04,VALID,1005.78,VALID,0,VALID,94.0488,VALID,0,VALID,23.8982,VALID,341,VALID,0.259766,
2011-10-15, 02:05:04,VALID,1005.76,VALID,0,VALID,93.9878,VALID,0,VALID,23.9371,VALID,356,VALID,0.617578,
2011-10-15, 02:06:04,VALID,1005.76,VALID,0,VALID,93.7971,VALID,0,VALID,23.9937,VALID,346,VALID,0.776172,
2011-10-15, 02:07:04,VALID,1005.73,VALID,0,VALID,93.347,VALID,0,VALID,24.0521,VALID,342,VALID,0.678906,
2011-10-15, 02:08:04,VALID,1005.75,VALID,0,VALID,92.9045,VALID,0,VALID,24.1318,VALID,341,VALID,0.742188,
2011-10-15, 02:09:04,VALID,1005.72,VALID,0,VALID,92.5765,VALID,0,VALID,24.1884,VALID,343,VALID,0.353516,
2011-10-15, 02:10:04,VALID,1005.72,VALID,0,VALID,92.2179,VALID,0,VALID,24.2468,VALID,339,VALID,0.289844,
2011-10-15, 02:11:04,VALID,1005.73,VALID,0,VALID,91.9433,VALID,0,VALID,24.307,VALID,339,VALID,0.439453,
2011-10-15, 02:12:04,VALID,1005.69,VALID,0,VALID,91.8441,VALID,0,VALID,24.307,VALID,350,VALID,0.717578,
2011-10-15, 02:13:04,VALID,1005.7,VALID,0,VALID,91.8517,VALID,0,VALID,24.2662,VALID,335,VALID,0.433594,
2011-10-15, 02:14:04,VALID,1005.66,VALID,0,VALID,91.8136,VALID,0,VALID,24.2681,VALID,335,VALID,0.302344,
2011-10-15, 02:15:04,VALID,1005.64,VALID,0,VALID,91.7831,VALID,0,VALID,24.2468,VALID,335,VALID,0.170703,
2011-10-15, 02:16:04,VALID,1005.62,VALID,0,VALID,91.7983,VALID,0,VALID,24.2273,VALID,335,VALID,0.191406,
2011-10-15, 02:17:04,VALID,1005.59,VALID,0,VALID,91.9433,VALID,0,VALID,24.2273,VALID,335,VALID,0.116797,
2011-10-15, 02:18:04,VALID,1005.57,VALID,0,VALID,92.0043,VALID,0,VALID,24.1884,VALID,334,VALID,0,
2011-10-15, 02:19:04,VALID,1005.52,VALID,0,VALID,92.1187,VALID,0,VALID,24.1884,VALID,300,VALID,0.278125,
2011-10-15, 02:20:04,VALID,1005.5,VALID,0,VALID,92.0043,VALID,0,VALID,24.2078,VALID,348,VALID,0.763281,
2011-10-15, 02:21:04,VALID,1005.48,VALID,0,VALID,91.9433,VALID,0,VALID,24.2291,VALID,349,VALID,0.573438,
2011-10-15, 02:22:04,VALID,1005.49,VALID,0,VALID,91.867,VALID,0,VALID,24.206,VALID,349,VALID,0.453906,
2011-10-15, 02:23:04,VALID,1005.47,VALID,0,VALID,91.7831,VALID,0,VALID,24.2486,VALID,343,VALID,0.566016,
2011-10-15, 02:24:04,VALID,1005.44,VALID,0,VALID,91.8517,VALID,0,VALID,24.1884,VALID,344,VALID,0.578125,
2011-10-15, 02:25:04,VALID,1005.48,VALID,0,VALID,92.0501,VALID,0,VALID,24.1494,VALID,346,VALID,0.794141,
2011-10-15, 02:26:04,VALID,1005.47,VALID,0,VALID,92.2179,VALID,0,VALID,24.1105,VALID,347,VALID,0.669922,
2011-10-15, 02:27:04,VALID,1005.45,VALID,0,VALID,92.3705,VALID,0,VALID,24.1105,VALID,350,VALID,0.585547,
2011-10-15, 02:28:04,VALID,1005.45,VALID,0,VALID,92.5536,VALID,0,VALID,24.091,VALID,351,VALID,0.712891,
2011-10-15, 02:29:04,VALID,1005.46,VALID,0,VALID,92.607,VALID,0,VALID,24.0521,VALID,352,VALID,0.637891,
2011-10-15, 02:30:04,VALID,1005.43,VALID,0,VALID,92.8664,VALID,0,VALID,24.0539,VALID,352,VALID,0.396875,
2011-10-15, 02:31:04,VALID,1005.43,VALID,0,VALID,92.9655,VALID,0,VALID,24.0132,VALID,352,VALID,0.504297,
2011-10-15, 02:32:04,VALID,1005.44,VALID,0,VALID,93.0876,VALID,0,VALID,23.9937,VALID,352,VALID,0.464844,
2011-10-15, 02:33:04,VALID,1005.39,VALID,0,VALID,93.0952,VALID,0,VALID,23.9548,VALID,352,VALID,0.382813,
2011-10-15, 02:34:04,VALID,1005.39,VALID,0,VALID,93.3088,VALID,0,VALID,23.9353,VALID,351,VALID,0.269531,
2011-10-15, 02:35:04,VALID,1005.36,VALID,0,VALID,93.3622,VALID,0,VALID,23.9159,VALID,352,VALID,0.451953,
2011-10-15, 02:36:04,VALID,1005.34,VALID,0,VALID,93.4996,VALID,0,VALID,23.9177,VALID,351,VALID,0.540234,
2011-10-15, 02:37:04,VALID,1005.29,VALID,0,VALID,93.7666,VALID,0,VALID,23.9159,VALID,349,VALID,0.754297,
2011-10-15, 02:38:04,VALID,1005.26,VALID,0,VALID,93.6903,VALID,0,VALID,23.9159,VALID,349,VALID,0.601563,
2011-10-15, 02:39:04,VALID,1005.26,VALID,0,VALID,93.7284,VALID,0,VALID,23.9548,VALID,350,VALID,0.690234,
2011-10-15, 02:40:04,VALID,1005.24,VALID,0,VALID,93.5987,VALID,0,VALID,23.9742,VALID,350,VALID,0.382813,
2011-10-15, 02:41:04,VALID,1005.26,VALID,0,VALID,93.6216,VALID,0,VALID,23.9548,VALID,350,VALID,0.396094,
2011-10-15, 02:42:04,VALID,1005.28,VALID,0,VALID,93.5758,VALID,0,VALID,23.9548,VALID,350,VALID,0.455078,
2011-10-15, 02:43:04,VALID,1005.27,VALID,0,VALID,93.5224,VALID,0,VALID,23.9548,VALID,350,VALID,0.572266,
2011-10-15, 02:44:04,VALID,1005.28,VALID,0,VALID,93.6216,VALID,0,VALID,23.9353,VALID,350,VALID,0.535156,
2011-10-15, 02:45:04,VALID,1005.3,VALID,0,VALID,93.7208,VALID,0,VALID,23.9159,VALID,350,VALID,0.357422,
2011-10-15, 02:46:04,VALID,1005.33,VALID,0,VALID,93.7895,VALID,0,VALID,23.8964,VALID,350,VALID,0.366797,
2011-10-15, 02:47:04,VALID,1005.33,VALID,0,VALID,94.0336,VALID,0,VALID,23.8964,VALID,350,VALID,0.527734,
2011-10-15, 02:48:04,VALID,1005.35,VALID,0,VALID,94.0183,VALID,0,VALID,23.9159,VALID,350,VALID,0.501953,
2011-10-15, 02:49:04,VALID,1005.35,VALID,0,VALID,93.9649,VALID,0,VALID,23.8964,VALID,350,VALID,0.58125,
2011-10-15, 02:50:04,VALID,1005.36,VALID,0,VALID,94.0717,VALID,0,VALID,23.9159,VALID,356,VALID,0.525391,
2011-10-15, 02:51:04,VALID,1005.36,VALID,0,VALID,94.0183,VALID,0.0815089,VALID,23.9159,VALID,356,VALID,0.408984,
2011-10-15, 02:52:04,VALID,1005.33,VALID,0,VALID,94.0946,VALID,0,VALID,23.8964,VALID,356,VALID,0.603125,
2011-10-15, 02:53:04,VALID,1005.33,VALID,0,VALID,94.0794,VALID,0,VALID,23.8964,VALID,356,VALID,0.450781,
2011-10-15, 02:54:04,VALID,1005.36,VALID,0,VALID,94.1022,VALID,0,VALID,23.8769,VALID,356,VALID,0.304297,
2011-10-15, 02:55:04,VALID,1005.33,VALID,0,VALID,94.148,VALID,0,VALID,23.8575,VALID,356,VALID,0.387109,
2011-10-15, 02:56:04,VALID,1005.38,VALID,0,VALID,94.1938,VALID,0,VALID,23.8787,VALID,356,VALID,0.331641,
2011-10-15, 02:57:04,VALID,1005.35,VALID,0,VALID,94.2548,VALID,0,VALID,23.838,VALID,356,VALID,0.244531,
2011-10-15, 02:58:04,VALID,1005.37,VALID,0,VALID,94.2701,VALID,0,VALID,23.8185,VALID,356,VALID,0.44375,
2011-10-15, 02:59:04,VALID,1005.34,VALID,0,VALID,94.3158,VALID,0,VALID,23.8203,VALID,356,VALID,0.234766,
2011-10-15, 03:00:04,VALID,1005.32,VALID,0,VALID,94.4227,VALID,0,VALID,23.7796,VALID,356,VALID,0.266016,
2011-10-15, 03:01:04,VALID,1005.33,VALID,0,VALID,94.4303,VALID,0,VALID,23.8009,VALID,356,VALID,0.38125,
2011-10-15, 03:02:04,VALID,1005.33,VALID,0,VALID,94.4761,VALID,0,VALID,23.7601,VALID,356,VALID,0.437109,
2011-10-15, 03:03:04,VALID,1005.32,VALID,0,VALID,94.5676,VALID,0,VALID,23.7425,VALID,356,VALID,0.357422,
2011-10-15, 03:04:04,VALID,1005.3,VALID,0,VALID,94.6057,VALID,0,VALID,23.7619,VALID,356,VALID,0.528906,
2011-10-15, 03:05:04,VALID,1005.31,VALID,0,VALID,94.682,VALID,0,VALID,23.7212,VALID,356,VALID,0.556641,
2011-10-15, 03:06:04,VALID,1005.32,VALID,0,VALID,94.7431,VALID,0,VALID,23.723,VALID,356,VALID,0.416406,
2011-10-15, 03:07:04,VALID,1005.35,VALID,0,VALID,94.7965,VALID,0,VALID,23.6805,VALID,356,VALID,0.416016,
2011-10-15, 03:08:04,VALID,1005.36,VALID,0,VALID,94.8804,VALID,0,VALID,23.6823,VALID,356,VALID,0.265625,
2011-10-15, 03:09:04,VALID,1005.38,VALID,0,VALID,94.8728,VALID,0,VALID,23.6823,VALID,356,VALID,0.15625,
2011-10-15, 03:10:04,VALID,1005.39,VALID,0,VALID,94.9262,VALID,0,VALID,23.6841,VALID,356,VALID,0.149219,
2011-10-15, 03:11:04,VALID,1005.38,VALID,0,VALID,95.0101,VALID,0,VALID,23.6628,VALID,356,VALID,0.0265625,
2011-10-15, 03:12:04,VALID,1005.38,VALID,0,VALID,95.0101,VALID,0,VALID,23.6841,VALID,356,VALID,0,
2011-10-15, 03:13:04,VALID,1005.38,VALID,0,VALID,95.1093,VALID,0,VALID,23.6841,VALID,356,VALID,0,
2011-10-15, 03:14:04,VALID,1005.35,VALID,0,VALID,95.1245,VALID,0,VALID,23.6628,VALID,356,VALID,0,
2011-10-15, 03:15:04,VALID,1005.35,VALID,0,VALID,95.1169,VALID,0,VALID,23.6646,VALID,356,VALID,0.0328125,
2011-10-15, 03:16:04,VALID,1005.39,VALID,0,VALID,95.1245,VALID,0,VALID,23.6452,VALID,356,VALID,0.366406,
2011-10-15, 03:17:04,VALID,1005.38,VALID,0,VALID,95.1245,VALID,0,VALID,23.6452,VALID,356,VALID,0.35625,
2011-10-15, 03:18:04,VALID,1005.39,VALID,0,VALID,95.2542,VALID,0,VALID,23.6239,VALID,356,VALID,0.504297,
2011-10-15, 03:19:04,VALID,1005.39,VALID,0,VALID,95.2237,VALID,0,VALID,23.6239,VALID,356,VALID,0.530469,
2011-10-15, 03:20:04,VALID,1005.36,VALID,0,VALID,95.2313,VALID,0,VALID,23.6044,VALID,356,VALID,0.455859,
2011-10-15, 03:21:04,VALID,1005.34,VALID,0,VALID,95.2771,VALID,0,VALID,23.6257,VALID,356,VALID,0.455469,
2011-10-15, 03:22:04,VALID,1005.32,VALID,0,VALID,95.361,VALID,0,VALID,23.6044,VALID,356,VALID,0.366406,
2011-10-15, 03:23:04,VALID,1005.31,VALID,0,VALID,95.3991,VALID,0,VALID,23.6044,VALID,356,VALID,0.367188,
2011-10-15, 03:24:04,VALID,1005.3,VALID,0,VALID,95.4144,VALID,0,VALID,23.6044,VALID,356,VALID,0.295312,
2011-10-15, 03:25:04,VALID,1005.28,VALID,0,VALID,95.4068,VALID,0,VALID,23.6257,VALID,356,VALID,0.415625,
2011-10-15, 03:26:04,VALID,1005.25,VALID,0,VALID,95.3763,VALID,0,VALID,23.6044,VALID,356,VALID,0.578906,
2011-10-15, 03:27:04,VALID,1005.25,VALID,0,VALID,95.3763,VALID,0,VALID,23.6062,VALID,356,VALID,0.640234,
2011-10-15, 03:28:04,VALID,1005.25,VALID,0,VALID,95.4754,VALID,0,VALID,23.585,VALID,356,VALID,0.583203,
2011-10-15, 03:29:04,VALID,1005.26,VALID,0,VALID,95.5517,VALID,0.0815089,VALID,23.6044,VALID,356,VALID,0.608984,
2011-10-15, 03:30:04,VALID,1005.27,VALID,0,VALID,95.5822,VALID,0,VALID,23.6044,VALID,356,VALID,0.608594,
2011-10-15, 03:31:04,VALID,1005.27,VALID,0,VALID,95.6509,VALID,0,VALID,23.6026,VALID,356,VALID,0.64375,
2011-10-15, 03:32:04,VALID,1005.3,VALID,0,VALID,95.6585,VALID,0,VALID,23.6434,VALID,356,VALID,0.523438,
2011-10-15, 03:33:04,VALID,1005.31,VALID,0,VALID,95.6662,VALID,0,VALID,23.6628,VALID,356,VALID,0.617969,
2011-10-15, 03:34:04,VALID,1005.31,VALID,0,VALID,95.6662,VALID,0,VALID,23.6841,VALID,356,VALID,0.417188,
2011-10-15, 03:35:04,VALID,1005.32,VALID,0,VALID,95.7043,VALID,0,VALID,23.6841,VALID,356,VALID,0.533203,
2011-10-15, 03:36:04,VALID,1005.35,VALID,0,VALID,95.7501,VALID,0,VALID,23.7017,VALID,3,VALID,0.589844,
2011-10-15, 03:37:04,VALID,1005.38,VALID,0,VALID,95.7653,VALID,0,VALID,23.7407,VALID,25,VALID,0.570703,
2011-10-15, 03:38:04,VALID,1005.39,VALID,0,VALID,95.7196,VALID,0,VALID,23.7814,VALID,25,VALID,0.567187,
2011-10-15, 03:39:04,VALID,1005.39,VALID,0,VALID,95.6967,VALID,0,VALID,23.7796,VALID,24,VALID,0.632031,
2011-10-15, 03:40:04,VALID,1005.41,VALID,0,VALID,95.7119,VALID,0,VALID,23.8203,VALID,24,VALID,0.519922,
2011-10-15, 03:41:04,VALID,1005.44,VALID,0,VALID,95.6585,VALID,0,VALID,23.838,VALID,24,VALID,0.531641,
2011-10-15, 03:42:04,VALID,1005.43,VALID,0,VALID,95.6128,VALID,0,VALID,23.8593,VALID,24,VALID,0.601563,
2011-10-15, 03:43:04,VALID,1005.43,VALID,0,VALID,95.4831,VALID,0,VALID,23.8575,VALID,24,VALID,0.442969,
2011-10-15, 03:44:04,VALID,1005.4,VALID,0,VALID,95.3839,VALID,0,VALID,23.8575,VALID,24,VALID,0.363281,